User: anonymous   Login
Location: Roanoke
(37.2710°N, 79.9420°W)
Time: 05:08:35
(UTC-04:00)
Language:

Cosmos 1441 Rocket - Orbit

View from above orbital plane
View from above orbital plane
View from above satellite
View from above satellite

Ground track
Ground track

The orbit data is extracted from the following two-line orbital elements,

1 13819U 83010B   14302.79372835  .00004869  00000-0  28267-3 0  9870
2 13819 081.1206 199.8338 0034135 299.9460 059.8377 15.11458134728276
Epoch (UTC): 29 October 2014 19:02:58
Eccentricity: 0.0034135
inclination: 81.1206°
perigee height: 508 km
apogee height: 555 km
right ascension of ascending node: 199.8338°
argument of perigee: 299.9460°
revolutions per day: 15.11458134
mean anomaly at epoch: 59.8377°
orbit number at epoch: 72827

The dashed part of the orbit path shows where the satellite is in the earth's shadow,  

DLR